Miscellaneous Local Product
Issued by NWS Hastings, NE

Home | Current Version | Previous Version | Text Only | Print | Product List | Glossary On
Versions: 1 2 3 4 5 6 7 8 9 10 11 12 13 14 15 16 17 18 19 20 21 22 23 24 25 26 27 28 29 30 31 32 33 34 35 36 37 38 39 40 41 42 43 44 45 46 47 48 49 50
000
AXUS43 KGID 252002
MISGRI

GID CWA HOURLY WEATHER ROUNDUP
NATIONAL WEATHER SERVICE HASTINGS NE
300 PM CDT SAT MAR 25 2017

NOTE: "FAIR" INDICATES FEW OR NO CLOUDS BELOW 12,000 FEET WITH NO
SIGNIFICANT WEATHER AND/OR OBSTRUCTIONS TO VISIBILITY.

...SOUTH CENTRAL NEBRASKA...

CITY           SKY/WX    TMP DP  RH WIND       PRES   REMARKS
GRAND ISLAND   CLOUDY    39  39 100 N10       29.98F WCI  32
HASTINGS       CLOUDY    40  37  89 N12       29.98F WCI  33
KEARNEY        CLOUDY    43  36  75 N9        29.98F
ORD            CLOUDY    43  38  82 NE8       29.97F
YORK           CLOUDY    39  39 100 N12G17    29.96F FOG     WCI  32
AURORA         CLOUDY    37  37 100 N9        29.97F FOG     WCI  31
LEXINGTON      PTSUNNY   50  42  72 CALM      29.96F
HOLDREGE       CLOUDY    43  39  86 NE6       29.97F
HEBRON         CLOUDY    40  38  93 N14       29.96F FOG     WCI  33

...NEBRASKA PANHANDLE...

CITY           SKY/WX    TMP DP  RH WIND       PRES   REMARKS
CHADRON        MOSUNNY   67  29  24 VRB5      29.85F
ALLIANCE       SUNNY     64  29  26 S13G20    29.89F
SCOTTSBLUFF    CLOUDY    66  30  26 SE5       29.88F
SIDNEY         CLOUDY    60  30  32 S12G18    29.94F

...WESTERN AND NORTH CENTRAL NEBRASKA...

CITY           SKY/WX    TMP DP  RH WIND       PRES   REMARKS
VALENTINE      SUNNY     61  15  16 SE8G17    29.94F
AINSWORTH      SUNNY     55  37  52 E7        29.96F
ONEILL         CLOUDY    39  38  94 NE6       30.00F WCI  35
BROKEN BOW     SUNNY     50  42  74 NE7       29.96F
IMPERIAL       SUNNY     58  25  28 CALM      29.95F
NORTH PLATTE   SUNNY     60  25  26 VRB3      29.94F
MCCOOK         SUNNY     60  31  33 CALM      29.93F

...EASTERN NEBRASKA...

CITY           SKY/WX    TMP DP  RH WIND       PRES   REMARKS
NORFOLK        CLOUDY    38  36  92 N13       29.97F FOG     WCI  30
SO SIOUX CITY  CLOUDY    40  38  93 NE12      29.99F WCI  33
TEKAMAH        LGT RAIN  40  38  93 N15       29.97F FOG     WCI  32
COLUMBUS       CLOUDY    39  36  87 N12       29.98F WCI  32
ALBION         CLOUDY    41  38  87 N10       29.98F
OMAHA EPPLEY   CLOUDY    43  38  82 N12       29.94F
OFFUTT AFB     CLOUDY    43  39  87 N7        29.93F
MILLARD        LGT RAIN  44  42  93 N3        29.94F
LINCOLN        CLOUDY    42  39  89 N15       29.95F
NEBRASKA CITY  DRIZZLE   42  42 100 N15       29.91F
BEATRICE       DRIZZLE   43  42  95 N13       29.93F
FALLS CITY     CLOUDY    45  41  86 N10       29.89

...NORTHERN KANSAS...

CITY           SKY/WX    TMP DP  RH WIND       PRES   REMARKS
GOODLAND       SUNNY     56  27  32 CALM      29.96F
HILL CITY      PTSUNNY   53  42  66 N8        29.96F
NORTON         PTCLDY    54  39  58 N7        29.94F
PHILLIPSBURG   CLOUDY    46  39  76 N8        29.97F
HAYS             N/A     47  39  74 N12       29.96F
RUSSELL        CLOUDY    45  39  79 N14       29.95F
CONCORDIA      CLOUDY    41  40  96 N15       29.95F
SALINA         CLOUDY    44  40  85 NW23      29.95F
TOPEKA         CLOUDY    49  47  93 N13       29.86F



USA.gov is the U.S. government's official web portal to all federal, state and local government web resources and services.